Regional Weather Roundup
Issued by NWS

Home | Current Version | Previous Version | Text Only | Print | Product List | Glossary Off
Versions: 1 2 3 4 5 6 7 8 9 10 11 12 13 14 15 16 17 18 19 20 21 22 23 24 25 26 27 28 29 30 31 32 33 34 35 36 37 38 39 40 41 42 43 44 45 46 47 48 49 50

000
ASUS43 KDTX 151910
RWRMI
MICHIGAN HOURLY REGIONAL WEATHER ROUNDUP
NATIONAL WEATHER SERVICE DETROIT/PONTIAC MI
200 PM EST MON JAN 15 2018

NOTE: "FAIR" INDICATES FEW OR NO CLOUDS BELOW 12,000 FEET WITH NO
SIGNIFICANT WEATHER AND/OR OBSTRUCTION TO VISIBILITY.

MIZ047>049-052>055-059>063-066>070-074>076-081>083-152000-
SOUTHEAST LOWER MICHIGAN

CITY           SKY/WX    TMP DP  RH WIND       PRES   REMARKS
ADRIAN         LGT SNOW  19  15  84 S7        30.20F FOG     WCI  10
ALMA           LGT SNOW  19  15  85 E10       30.22F WCI   7
ANN ARBOR      LGT SNOW N/A N/A N/A SE9       30.20F
BAD AXE        LGT SNOW  18  11  76 SE10G17   30.28F WCI   6
CARO           LGT SNOW  17  12  79 E9        30.25F WCI   6
DETROIT CITY   LGT SNOW  20  15  81 SE9       30.24F WCI   9
DETROIT        LGT SNOW  20  16  84 S13       30.23F VSB 1   WCI   7
FLINT          LGT SNOW  18  12  77 E14       30.21F WCI   4
GROSSE ILE     LGT SNOW  21  16  83 SE9       30.23F WCI  10
HILLSDALE      LGT SNOW  19  14  79 SE7       30.14F WCI  10
HOWELL         LGT SNOW  19  16  86 SE10      30.18F VSB 3/4 WCI   8

CITY           SKY/WX    TMP DP  RH WIND       PRES   REMARKS
JACKSON        LGT SNOW  19  14  81 E9        30.17F WCI   8
LAMBERTVILLE   LGT SNOW  21  16  81 SE3       30.21F
LANSING        LGT SNOW  19  16  88 SE9       30.19F VSB 3/4 WCI   8
LAPEER         LGT SNOW  18  13  81 E6        30.23F WCI   9
MASON          LGT SNOW  20  14  76 E7        30.18F WCI  11
MONROE         LGT SNOW  20  14  79 SE7       30.22F WCI  11
MT. CLEMENS    CLOUDY    19  18  93 E13       30.23F WCI   7
PONTIAC        LGT SNOW  18  14  84 E9        30.19F FOG     WCI   7
PORT HOPE        N/A     19  14  81 SE15      30.28F WCI   5
PORT HURON     LGT SNOW  18  12  79 E10       30.27F WCI   6
TRI CITIES     LGT SNOW  18  15  88 E12       30.25F VSB 1   WCI   5
MIDLAND        LGT SNOW  19  13  80 E12       30.25F WCI   6
TROY           LGT SNOW  20  16  83 E10G16    30.24F VSB 1   WCI   9
SAGINAW HB     LGT SNOW  19  14  79 E9        30.25F WCI   9
$$
MIZ043>046-050>051-056>058-064>065-071>073-077>080-152000-
SOUTHWEST LOWER MICHIGAN

CITY           SKY/WX    TMP DP  RH WIND       PRES   REMARKS
BATTLE CREEK   CLOUDY    20  14  77 SE9       30.15F HAZE    WCI   9
BENTON HARBOR  LGT SNOW  23  15  71 S7        30.15S WCI  15
BIG RAPIDS     LGT SNOW  17  11  76 E13       30.18F WCI   4
COLDWATER      LGT SNOW  21  16  81 SE6       30.15F WCI  13
FREMONT        LGT SNOW  19   9  65 E7        30.18F WCI  10
HOLLAND        LGT SNOW  20  15  81 E8        30.16  WCI  10
GRAND RAPIDS   LGT SNOW  19  13  77 E14       30.17F WCI   6
IONIA          LGT SNOW  20  15  83 E7        30.18F VSB 1   WCI  11
KALAMAZOO      LGT SNOW  21  14  74 VRB5      30.15F WCI  15
LUDINGTON      FLURRIES  21  13  71 E12       30.19F WCI   9
MARSHALL       LGT SNOW  19  13  77 SE9       30.15F WCI   8
MOUNT PLEASANT LGT SNOW  19  13  77 E9        30.21F WCI   8
MUSKEGON       LGT SNOW  20  12  71 E10       30.18F WCI   9
SOUTH HAVEN    LGT SNOW  22  15  74 SE6       30.15S WCI  15
$$
MIZ016>042-152000-
NORTHERN LOWER MICHIGAN

CITY           SKY/WX    TMP DP  RH WIND       PRES   REMARKS
ALPENA         LGT SNOW  20  17  88 SE12      30.31F VSB 3/4 WCI   8
BEAVER ISLAND  CLOUDY    20  13  75 E13       30.30F HAZE    WCI   7
BELLAIRE       LGT SNOW  19  13  79 E7        30.28F WCI   9
CADILLAC       LGT SNOW  16  11  82 E10       30.16F WCI   3
CHARLEVOIX     CLOUDY    19  10  68 E9        30.31F HAZE    WCI   9
FRANKFORT      CLOUDY    21  11  67 E10       30.21F HAZE    WCI  10
GAYLORD        LGT SNOW  16  11  80 SE8       30.22F WCI   5
GRAYLING       LGT SNOW  17  10  73 E14       30.23F WCI   3
HARBOR SPRINGS CLOUDY    20  11  66 E9        30.28F WCI  10
HOUGHTON LAKE  LGT SNOW  17  10  74 E10       30.22F WCI   5
MANISTEE       LGT SNOW  20  12  71 E8        30.20F WCI  10
OSCODA         LGT SNOW  19  14  79 SE8       30.30F VSB 3/4 WCI   9
PELLSTON       CLOUDY    21  12  68 E10       30.30F WCI  10
ROGERS CITY    CLOUDY    22  14  73 SE12G17   30.32F WCI  10
TRAVERSE CITY  LGT SNOW  20  12  71 E8G20     30.23F WCI  10
$$
MIZ007>008-015-152000-
EASTERN UPPER MICHIGAN

CITY           SKY/WX    TMP DP  RH WIND       PRES   REMARKS
KINROSS        SNOW      19  16  88 E17G24    30.33S VSB 1/2 WCI   4
MACKINAC ISLAN CLOUDY    21  12  67 SE10G18   30.30F WCI  10
NEWBERRY       LGT SNOW  18  16  93 E7        30.31F VSB 3/4 WCI   8
S. S. MARIE    LGT SNOW  20  13  74 E10G22    30.35F WCI   9
MUNISING         N/A     19  12  74 SE8G18    30.31F WCI   9
$$
MIZ004>006-011>014-085-152000-
CENTRAL UPPER MICHIGAN

CITY           SKY/WX    TMP DP  RH WIND       PRES   REMARKS
MANISTIQUE     LGT SNOW  19  13  80 E9        30.29F WCI   7
ESCANABA       LGT SNOW  21  17  84 E9        30.27F FOG     WCI  11
MENOMINEE      LGT SNOW  23  19  86 E12       30.23S FOG     WCI  12
SAWYER-GWINN   LGT SNOW  18  12  79 E8        30.25F WCI   7
$$
MIZ001>003-009>011-084-152000-
WESTERN UPPER MICHIGAN

CITY           SKY/WX    TMP DP  RH WIND       PRES   REMARKS
IRON MOUNTAIN  MIX PCPN  21  14  74 E9        30.19F WCI  11
HOUGHTON       LGT SNOW  22  16  78 E8        30.28S WCI  12
COPPER HARBOR    N/A     22  15  75 SE8       30.33F WCI  12
IRONWOOD       LGT SNOW  19  12  73 N6        30.25S VSB 1   WCI  11
$$

ABBREVIATIONS USED IN REMARKS
   TC - TEMPERATURE IN CELSIUS
  WCI - WIND CHILL INDEX
   HX - HEAT INDEX
  VSB - VISIBILITY





USA.gov is the U.S. government's official web portal to all federal, state and local government web resources and services.